YO8RXT-3 Weather Reports


time (UTC)temp
C
wind
direction
speed
KPH
gust
KPH
rain 1hr
cm
rain 24hr
cm
rain mn
cm
humidity
%
barometer
mb
20260505100502 23 8.0 0.0 0.00 0.00 0.00 29 1014.0
20260505093503 23 8.0 0.0 0.00 0.00 0.00 31 1015.0
20260505090503 22 170 4.8 0.0 0.00 0.00 0.00 36 1015.0
20260505083503 22 3.2 0.0 0.00 0.00 0.00 36 1015.0
20260505080502 21 3.2 0.0 0.00 0.00 0.00 35 1015.0
20260505073503 18 110 9.7 0.0 0.00 0.00 0.00 43 1015.0
20260505070503 17 110 8.0 0.0 0.00 0.00 0.00 46 1015.0
20260505063503 16 90 9.7 0.0 0.00 0.00 0.00 52 1015.0
20260505060503 15 90 9.7 0.0 0.00 0.00 0.00 51 1015.0
20260505053502 13 100 9.7 0.0 0.00 0.00 0.00 55 1015.0
20260505050503 12 90 8.0 0.0 0.00 0.00 0.00 55 1015.0
20260505040503 11 70 9.7 0.0 0.00 0.00 0.00 58 1015.0
20260505033502 11 90 8.0 0.0 0.00 0.00 0.00 54 1015.0
20260505030502 11 90 8.0 0.0 0.00 0.00 0.00 54 1015.0
20260505023503 12 80 8.0 0.0 0.00 0.00 0.00 51 1015.0
20260505020503 -17 0.0 0.0 0.00 0.00 0.00
20260505013503 15 1.6 0.0 0.00 0.00 0.00 42 1014.0
20260505010503 15 1.6 0.0 0.00 0.00 0.00 42 1014.0
20260505003502 13 1.6 0.0 0.00 0.00 0.00 44 1015.0
20260505000503 15 150 3.2 0.0 0.00 0.00 0.00 42 1015.0
20260504233502 15 3.2 0.0 0.00 0.00 0.00 42 1015.0
20260504230502 15 200 3.2 0.0 0.00 0.00 0.00 45 1015.0
20260504223503 15 200 3.2 0.0 0.00 0.00 0.00 45 1015.0
20260504220504 16 210 4.8 0.0 0.00 0.00 0.00 42 1015.0
20260504213503 16 190 9.7 0.0 0.00 0.00 0.00 42 1015.0
20260504210503 17 3.2 0.0 0.00 0.00 0.00 39 1015.0
20260504203504 17 3.2 0.0 0.00 0.00 0.00 39 1015.0
20260504200502 17 120 4.8 0.0 0.00 0.00 0.00 37 1015.0
20260504193502 17 0 0.0 0.0 0.00 0.00 0.00 40 1015.0
20260504190502 17 0 0.0 0.0 0.00 0.00 0.00 40 1015.0
20260504183502 21 120 8.0 0.0 0.00 0.00 0.00 33 1014.0
20260504180502 21 120 8.0 0.0 0.00 0.00 0.00 33 1014.0
20260504173502 22 3.2 0.0 0.00 0.00 0.00 31 1014.0
20260504170502 22 100 8.0 0.0 0.00 0.00 0.00 33 1014.0
20260504150503 23 60 16.1 0.0 0.00 0.00 0.00 27 1014.0
20260504140505 25 40 22.5 0.0 0.00 0.00 0.00 26 1014.0
20260504130503 25 20 20.9 0.0 0.00 0.00 0.00 26 1014.0
20260504110503 22 20 9.7 0.0 0.00 0.00 0.00 31 1015.0